Weather History for Fort Leonard Wood, MO

Change the Weather History Date:

Monday, March 11, 2013

  Actual Average Record
Temperature  
Mean Temperature 32 °F -  
Max Temperature 37 °F 50 °F 79 °F (2014)
Min Temperature 27 °F 34 °F 12 °F (1998)
Degree Days  
Heating Degree Days 33    
Moisture  
Dew Point 28 °F    
Average Humidity 89    
Maximum Humidity 100    
Minimum Humidity 60    
Precipitation  
Precipitation 0.00 in - - ()
Sea Level Pressure  
Sea Level Pressure 29.86 in    
Wind  
Wind Speed 10 mph (West)    
Max Wind Speed 14 mph    
Max Gust Speed 21 mph    
Visibility 10 miles    
Events      
Averages and records for this station are not official NWS values.
T = Trace of Precipitation, MM = Missing Value Source: NWS Daily Summary

Daily Weather History Graph

Daily Weather History Graph

Search for Another Location

Airport:

Trip Planner

Search our weather history database for the weather conditions in past years. The results will help you decide how hot, cold, wet, or windy it might be!

Date:

Astronomy

Mar. 11, 2013 Rise Set
Actual Time 7:25 AM CDT 7:12 PM CDT
Civil Twilight 6:59 AM CDT 7:38 PM CDT
Nautical Twilight 6:28 AM CDT 8:08 PM CDT
Astronomical Twilight 5:58 AM CDT 8:39 PM CDT
Moon 6:59 AM CDT (3/11) 7:23 PM CDT (3/11)
Length of Visible Light 12h 39m
Length of Day
11h 47m
Waning Crescent, 0% of the Moon is Illuminated
Mar 11
Waning Crescent
Mar 11
New
Mar 19
First Quarter
Mar 27
Full
Apr 2
Last Quarter

Hourly Weather History & Observations

Time (CDT) Temp. Windchill Dew Point Humidity Pressure Visibility Wind Dir Wind Speed Gust Speed Precip Events Conditions
12:58 AM 33.3 °F 24.6 °F 32.9 °F 99% 29.84 in 10.0 mi West 11.5 mph 20.7 mph N/A   Overcast
1:03 AM 32.0 °F 24.2 °F 32.0 °F 100% 29.81 in 10.0 mi West 9.2 mph 18.4 mph N/A   Overcast
1:58 AM 32.5 °F 24.8 °F 32.0 °F 98% 29.83 in 10.0 mi West 9.2 mph - N/A   Overcast
2:58 AM 31.5 °F 22.9 °F 30.4 °F 96% 29.81 in 10.0 mi West 10.4 mph 18.4 mph N/A   Overcast
3:42 AM 32.0 °F 24.8 °F 32.0 °F 100% 29.78 in 10.0 mi West 8.1 mph - N/A   Light Drizzle
3:50 AM 32.0 °F 23.6 °F 32.0 °F 100% 29.78 in 7.0 mi West 10.4 mph - N/A   Light Freezing Drizzle
3:55 AM 32.0 °F 24.2 °F 32.0 °F 100% 29.78 in 7.0 mi West 9.2 mph - N/A   Light Freezing Drizzle
3:58 AM 30.7 °F 23.3 °F 30.6 °F 99% 29.80 in 8.0 mi West 8.1 mph - 0.00 in   Light Freezing Drizzle
4:18 AM 32.0 °F 23.6 °F 32.0 °F 100% 29.79 in 10.0 mi West 10.4 mph - N/A   Light Freezing Drizzle
4:20 AM 32.0 °F 22.1 °F 30.2 °F 93% 29.79 in 10.0 mi West 13.8 mph 20.7 mph N/A   Overcast
4:58 AM 30.0 °F 20.5 °F 29.7 °F 99% 29.83 in 10.0 mi West 11.5 mph 19.6 mph 0.00 in   Overcast
5:09 AM 30.2 °F 21.9 °F 28.4 °F 93% 29.81 in 10.0 mi West 9.2 mph - N/A   Light Freezing Drizzle
5:58 AM 29.3 °F 20.8 °F 29.1 °F 99% 29.83 in 10.0 mi West 9.2 mph - 0.00 in   Light Freezing Drizzle
6:07 AM 28.4 °F 20.4 °F 28.4 °F 100% 29.80 in 10.0 mi West 8.1 mph - N/A   Overcast
6:23 AM 28.4 °F 19.1 °F 28.4 °F 100% 29.81 in 10.0 mi WNW 10.4 mph 17.3 mph N/A   Overcast
6:25 AM 28.2 °F 17.2 °F 26.4 °F 93% 29.82 in 10.0 mi West 13.8 mph - N/A   Overcast
6:26 AM 28.4 °F 19.7 °F 28.4 °F 100% 29.81 in 10.0 mi West 9.2 mph 17.3 mph N/A   Light Freezing Drizzle
6:46 AM 28.4 °F 19.1 °F 28.4 °F 100% 29.81 in 10.0 mi West 10.4 mph 19.6 mph N/A   Light Freezing Drizzle
6:51 AM 28.4 °F 20.4 °F 26.6 °F 93% 29.81 in 10.0 mi West 8.1 mph - N/A   Light Freezing Drizzle
6:53 AM 28.4 °F 20.4 °F 28.4 °F 100% 29.81 in 10.0 mi West 8.1 mph - N/A   Overcast
6:58 AM 28.4 °F 19.7 °F 28.4 °F 100% 29.85 in 10.0 mi West 9.2 mph - 0.00 in   Overcast
7:55 AM 28.2 °F 17.2 °F 26.4 °F 93% 29.85 in 10.0 mi West 13.8 mph - N/A   Overcast
8:55 AM 27.9 °F 18.4 °F 27.0 °F 96% 29.86 in 10.0 mi West 10.4 mph - 0.00 in   Overcast
9:55 AM 27.9 °F 18.4 °F 26.8 °F 96% 29.89 in 10.0 mi West 10.4 mph - 0.00 in   Overcast
10:47 AM 28.4 °F 19.7 °F 26.6 °F 93% 29.87 in 10.0 mi West 9.2 mph 16.1 mph N/A   Overcast
10:58 AM 28.4 °F 19.1 °F 26.1 °F 91% 29.90 in 10.0 mi West 10.4 mph - N/A   Overcast
11:58 AM 29.1 °F 18.9 °F 25.9 °F 88% 29.91 in 10.0 mi West 12.7 mph 18.4 mph N/A   Overcast
12:48 PM 32.0 °F 25.6 °F 26.6 °F 80% 29.87 in 10.0 mi Variable 6.9 mph 17.3 mph N/A   Overcast
12:58 PM 31.5 °F 24.9 °F 26.8 °F 83% 29.90 in 10.0 mi Variable 6.9 mph 16.1 mph N/A   Overcast
1:58 PM 33.3 °F 27.9 °F 27.1 °F 78% 29.91 in 10.0 mi West 5.8 mph 17.3 mph N/A   Overcast
2:58 PM 33.8 °F 26.4 °F 27.5 °F 78% 29.91 in 10.0 mi WSW 9.2 mph 17.3 mph N/A   Overcast
3:58 PM 34.9 °F 27.1 °F 26.8 °F 72% 29.92 in 10.0 mi West 10.4 mph 19.6 mph N/A   Overcast
4:58 PM 35.2 °F 27.1 °F 26.6 °F 71% 29.93 in 10.0 mi West 11.5 mph - N/A   Overcast
5:40 PM 37.4 °F 30.3 °F 24.8 °F 60% 29.89 in 10.0 mi West 10.4 mph 16.1 mph N/A   Mostly Cloudy
5:58 PM 37.9 °F 32.1 °F 25.5 °F 61% 29.93 in 10.0 mi West 8.1 mph 17.3 mph N/A   Partly Cloudy
6:58 PM 37.0 °F 32.4 °F 24.6 °F 61% 29.94 in 10.0 mi West 5.8 mph - N/A   Clear
7:58 PM 34.2 °F 30.0 °F 24.3 °F 67% 29.92 in 10.0 mi West 4.6 mph - N/A   Clear
8:58 PM 33.4 °F 29.1 °F 24.1 °F 69% 29.94 in 10.0 mi WNW 4.6 mph - N/A   Clear
9:58 PM 30.7 °F 27.3 °F 23.9 °F 76% 29.96 in 10.0 mi WNW 3.5 mph - N/A   Clear
10:58 PM 30.2 °F 26.7 °F 24.1 °F 78% 30.02 in 10.0 mi WNW 3.5 mph - N/A   Clear
11:58 PM 29.8 °F - 24.4 °F 80% 30.04 in 10.0 mi West 2.3 mph - N/A   Clear